OE1HTB-13 Weather Reports


time (UTC)temp
C
wind
direction
speed
KPH
gust
KPH
rain 1hr
cm
rain 24hr
cm
rain mn
cm
humidity
%
barometer
mb
20260507214611 11 343 0.0 3.2 0.00 0.15 0.15 88 1014.3
20260507213111 11 40 1.6 3.2 0.03 0.15 0.15 88 1014.2
20260507211611 11 327 1.6 4.8 0.03 0.15 0.15 89 1014.3
20260507210110 11 336 1.6 4.8 0.03 0.15 0.15 90 1014.3
20260507204611 11 5 0.0 3.2 0.03 0.15 0.15 90 1014.3
20260507203111 11 30 0.0 3.2 0.00 0.13 0.13 90 1014.1
20260507201610 11 338 0.0 4.8 0.00 0.13 0.13 89 1013.9
20260507200115 11 325 1.6 3.2 0.00 0.13 0.13 89 1013.8
20260507194615 11 278 3.2 4.8 0.00 0.13 0.13 89 1013.7
20260507193115 12 304 3.2 6.4 0.00 0.13 0.13 89 1013.5
20260507191615 12 355 3.2 8.0 0.00 0.13 0.13 89 1013.2
20260507190116 12 360 3.2 6.4 0.00 0.13 0.13 89 1012.9
20260507184615 12 15 1.6 6.4 0.00 0.13 0.13 90 1012.7
20260507183114 12 5 1.6 6.4 0.00 0.13 0.13 89 1012.6
20260507181615 12 38 1.6 4.8 0.00 0.13 0.13 90 1012.4
20260507180114 12 315 0.0 3.2 0.00 0.13 0.13 90 1012.5
20260507174614 12 325 0.0 1.6 0.00 0.13 0.13 90 1012.4
20260507173114 12 325 0.0 1.6 0.00 0.13 0.13 89 1012.2
20260507171614 12 325 1.6 3.2 0.05 0.13 0.13 88 1012.0
20260507170113 13 318 1.6 4.8 0.13 0.13 0.13 87 1011.9
20260507164613 13 319 3.2 4.8 0.13 0.13 0.13 85 1011.8
20260507163113 14 331 3.2 8.0 0.13 0.13 0.13 81 1011.6
20260507161613 16 144 3.2 9.7 0.08 0.08 0.08 71 1011.5
20260507160113 17 277 1.6 8.0 0.00 0.00 0.00 60 1011.6
20260507154613 18 338 1.6 6.4 0.00 0.00 0.00 57 1011.4
20260507153114 18 120 3.2 11.3 0.00 0.00 0.00 55 1011.2
20260507151612 18 131 6.4 11.3 0.00 0.00 0.00 52 1011.1
20260507150112 19 147 3.2 12.9 0.00 0.00 0.00 50 1011.0
20260507144612 20 148 3.2 11.3 0.00 0.00 0.00 48 1010.9
20260507143112 21 125 4.8 12.9 0.00 0.00 0.00 45 1010.8
20260507141612 20 130 3.2 8.0 0.00 0.00 0.00 48 1010.9
20260507140112 21 148 3.2 9.7 0.00 0.00 0.00 45 1010.8
20260507134611 21 173 3.2 8.0 0.00 0.00 0.00 46 1010.9
20260507133111 20 122 3.2 9.7 0.00 0.00 0.00 44 1010.9
20260507131611 20 153 3.2 9.7 0.00 0.00 0.00 47 1011.1
20260507130111 19 162 3.2 9.7 0.00 0.00 0.00 50 1011.2
20260507124612 19 136 1.6 4.8 0.00 0.00 0.00 49 1011.2
20260507123111 20 218 3.2 11.3 0.00 0.00 0.00 46 1011.3
20260507121611 20 177 1.6 8.0 0.00 0.00 0.00 50 1011.3
20260507120111 18 336 3.2 12.9 0.00 0.00 0.00 49 1011.6
20260507114610 18 110 3.2 11.3 0.00 0.00 0.00 51 1011.5
20260507113110 18 158 3.2 12.9 0.00 0.00 0.00 53 1011.6
20260507111611 18 340 3.2 12.9 0.00 0.00 0.00 53 1011.6
20260507110110 18 87 3.2 12.9 0.00 0.00 0.00 52 1011.8
20260507104610 18 360 3.2 16.1 0.00 0.00 0.00 54 1011.8
20260507103115 18 43 4.8 14.5 0.00 0.00 0.00 52 1012.0
20260507101614 17 248 3.2 11.3 0.00 0.00 0.00 52 1012.0
20260507100114 17 284 1.6 12.9 0.00 0.00 0.00 56 1012.1
20260507094614 17 282 3.2 9.7 0.00 0.00 0.00 56 1011.9
20260507093114 17 84 3.2 11.3 0.00 0.00 0.00 58 1011.7
20260507091614 16 5 4.8 12.9 0.00 0.00 0.00 59 1011.6
20260507090114 16 180 4.8 16.1 0.00 0.00 0.00 57 1011.3
20260507084614 16 110 4.8 20.9 0.00 0.00 0.00 60 1011.1
20260507083113 17 125 4.8 24.1 0.00 0.00 0.00 58 1010.8
20260507081613 15 151 4.8 14.5 0.00 0.00 0.00 60 1010.7
20260507080113 15 75 4.8 16.1 0.00 0.00 0.00 60 1010.7
20260507074613 15 80 3.2 14.5 0.00 0.00 0.00 65 1010.6
20260507073113 15 5 4.8 14.5 0.00 0.00 0.00 64 1010.3
20260507071613 14 303 4.8 17.7 0.00 0.00 0.00 64 1010.3
20260507070112 13 42 4.8 14.5 0.00 0.00 0.00 66 1010.1
20260507064612 13 67 4.8 17.7 0.00 0.00 0.00 67 1010.1
20260507063112 13 121 6.4 19.3 0.00 0.00 0.00 67 1010.1
20260507061612 13 237 6.4 19.3 0.00 0.00 0.00 67 1009.9
20260507060112 13 271 6.4 19.3 0.00 0.00 0.00 67 1009.8
20260507054613 13 355 4.8 22.5 0.00 0.00 0.00 67 1009.5
20260507053112 13 117 3.2 17.7 0.00 0.00 0.00 68 1009.4
20260507051612 12 165 4.8 20.9 0.00 0.00 0.00 69 1009.3
20260507050112 12 132 4.8 17.7 0.00 0.00 0.00 69 1009.2
20260507044611 12 221 4.8 16.1 0.00 0.00 0.00 69 1008.9
20260507043111 12 236 4.8 17.7 0.00 0.00 0.00 70 1008.9
20260507041611 12 14 6.4 22.5 0.00 0.00 0.00 69 1008.7
20260507040111 12 329 6.4 14.5 0.00 0.00 0.00 70 1008.5
20260507034611 12 10 4.8 19.3 0.00 0.00 0.00 70 1008.5
20260507033111 12 148 4.8 12.9 0.00 0.00 0.00 69 1008.5
20260507031611 12 84 6.4 12.9 0.00 0.00 0.00 70 1008.4
20260507030110 12 355 4.8 24.1 0.00 0.00 0.00 69 1008.4
20260507024610 13 24 3.2 11.3 0.00 0.00 0.00 69 1008.1
20260507023110 13 307 4.8 14.5 0.00 0.00 0.00 69 1008.0
20260507021610 13 92 4.8 12.9 0.00 0.00 0.00 71 1008.0
20260507020110 13 179 3.2 11.3 0.00 0.00 0.00 72 1007.9
20260507014610 13 355 4.8 14.5 0.00 0.00 0.00 73 1007.9
20260507013110 13 193 3.2 14.5 0.00 0.00 0.00 73 1007.8
20260507011609 13 269 4.8 19.3 0.00 0.00 0.00 72 1007.7
20260507010109 13 355 4.8 12.9 0.00 0.00 0.00 72 1007.6
20260507004609 13 331 4.8 12.9 0.00 0.00 0.00 71 1007.4
20260507003114 14 69 3.2 14.5 0.00 0.00 0.00 71 1007.3
20260507001614 14 39 4.8 17.7 0.00 0.00 0.00 71 1007.3
20260507000114 14 342 3.2 14.5 0.00 0.00 0.00 71 1007.1
20260506234613 15 114 4.8 14.5 0.00 0.00 0.00 72 1006.9
20260506233114 15 30 4.8 20.9 0.00 0.00 0.00 74 1006.9
20260506231613 15 67 6.4 19.3 0.00 0.00 0.00 74 1006.7
20260506230113 15 259 4.8 17.7 0.00 0.00 0.00 73 1006.5
20260506224613 15 360 4.8 17.7 0.00 0.00 0.00 70 1006.3
20260506223113 15 228 4.8 12.9 0.00 0.00 0.00 67 1006.2
20260506221614 15 5 4.8 17.7 0.00 0.00 0.00 67 1005.6
20260506220113 15 94 3.2 11.3 0.00 0.00 0.00 67 1005.3